Time,TemperatureF,DewpointF,PressureIn,WindDirection,WindDirectionDegrees,WindSpeedMPH,WindSpeedGustMPH,Humidity,HourlyPrecipIn,Conditions,Clouds,dailyrainin,SoftwareType,DateUTC
2013-04-11 00:00:00,47.5,-99.9,30.23,SSW,194,1.8,7.0,-999,0.00,,,0.02,homebrew,2013-04-11 07:00:00,
2013-04-11 00:05:00,47.5,-99.9,30.23,SSW,203,0.8,4.9,-999,0.00,,,0.02,homebrew,2013-04-11 07:05:00,
2013-04-11 00:15:00,47.5,-99.9,30.23,South,176,0.5,4.7,-999,0.00,,,0.02,homebrew,2013-04-11 07:15:00,
2013-04-11 00:20:00,47.5,-99.9,30.24,SSE,157,0.2,4.0,-999,0.00,,,0.02,homebrew,2013-04-11 07:20:00,
2013-04-11 00:25:00,47.5,-99.9,30.24,SE,141,1.3,2.1,-999,0.00,,,0.02,homebrew,2013-04-11 07:25:00,
2013-04-11 00:30:00,47.5,-99.9,30.24,SSE,153,2.0,5.3,-999,0.00,,,0.02,homebrew,2013-04-11 07:30:00,
2013-04-11 00:35:00,47.5,-99.9,30.24,SSE,156,0.2,5.2,-999,0.00,,,0.02,homebrew,2013-04-11 07:35:00,
2013-04-11 00:40:00,47.5,-99.9,30.24,South,184,2.7,9.0,-999,0.00,,,0.02,homebrew,2013-04-11 07:40:00,
2013-04-11 00:45:00,47.4,-99.9,30.24,South,185,2.0,6.2,-999,0.00,,,0.00,homebrew,2013-04-11 07:45:00,
2013-04-11 00:50:00,47.3,-99.9,30.24,South,187,2.7,4.4,-999,0.00,,,0.00,homebrew,2013-04-11 07:50:00,
2013-04-11 00:55:00,47.1,-99.9,30.24,South,177,2.0,7.3,-999,0.00,,,0.00,homebrew,2013-04-11 07:55:00,
2013-04-11 01:05:00,46.7,-99.9,30.24,SSW,196,3.0,9.3,-999,0.00,,,0.00,homebrew,2013-04-11 08:05:00,
2013-04-11 01:10:00,46.5,-99.9,30.24,South,186,3.3,9.2,-999,0.00,,,0.00,homebrew,2013-04-11 08:10:00,
2013-04-11 01:15:00,46.3,-99.9,30.24,SSW,197,2.5,8.3,-999,0.00,,,0.00,homebrew,2013-04-11 08:15:00,
2013-04-11 01:20:00,46.1,-99.9,30.24,South,181,1.6,6.2,-999,0.00,,,0.00,homebrew,2013-04-11 08:20:00,
2013-04-11 01:25:00,46.0,-99.9,30.24,South,180,2.5,7.3,-999,0.00,,,0.00,homebrew,2013-04-11 08:25:00,
2013-04-11 01:30:00,45.9,-99.9,30.24,SSW,201,1.0,6.2,-999,0.00,,,0.00,homebrew,2013-04-11 08:30:00,
2013-04-11 01:35:00,45.8,-99.9,30.25,South,184,1.6,4.8,-999,0.00,,,0.00,homebrew,2013-04-11 08:35:00,
2013-04-11 01:40:00,45.8,-99.9,30.25,South,190,2.9,7.3,-999,0.00,,,0.00,homebrew,2013-04-11 08:40:00,
2013-04-11 01:50:00,46.0,-99.9,30.25,South,186,2.0,4.8,-999,0.00,,,0.00,homebrew,2013-04-11 08:50:00,
2013-04-11 01:55:00,46.1,-99.9,30.25,South,186,2.7,7.1,-999,0.00,,,0.00,homebrew,2013-04-11 08:55:00,
2013-04-11 02:00:00,46.2,-99.9,30.25,South,182,2.4,8.0,-999,0.00,,,0.00,homebrew,2013-04-11 09:00:00,
2013-04-11 02:05:00,46.3,-99.9,30.25,South,176,1.4,8.7,-999,0.00,,,0.00,homebrew,2013-04-11 09:05:00,
2013-04-11 02:10:00,46.3,-99.9,30.25,South,173,2.0,6.5,-999,0.00,,,0.00,homebrew,2013-04-11 09:10:00,
2013-04-11 02:15:00,46.3,-99.9,30.25,South,183,2.2,7.5,-999,0.00,,,0.00,homebrew,2013-04-11 09:15:00,
2013-04-11 02:20:00,46.4,-99.9,30.24,South,187,3.3,9.4,-999,0.00,,,0.00,homebrew,2013-04-11 09:20:00,
2013-04-11 02:25:00,46.4,-99.9,30.24,SSW,192,3.2,7.8,-999,0.00,,,0.00,homebrew,2013-04-11 09:25:00,
2013-04-11 02:30:00,46.4,-99.9,30.24,SSW,198,2.9,13.0,-999,0.00,,,0.00,homebrew,2013-04-11 09:30:00,
2013-04-11 02:40:00,46.4,-99.9,30.23,SSW,194,2.6,7.0,-999,0.00,,,0.00,homebrew,2013-04-11 09:40:00,
2013-04-11 02:45:00,46.3,-99.9,30.23,SSW,200,4.4,6.2,-999,0.00,,,0.00,homebrew,2013-04-11 09:45:00,
2013-04-11 02:50:00,46.3,-99.9,30.23,SSW,200,3.0,8.9,-999,0.00,,,0.00,homebrew,2013-04-11 09:50:00,
2013-04-11 03:00:00,46.3,-99.9,30.24,South,189,1.9,9.7,-999,0.00,,,0.00,homebrew,2013-04-11 10:00:00,
2013-04-11 03:05:00,46.3,-99.9,30.24,SSW,194,2.9,6.1,-999,0.00,,,0.00,homebrew,2013-04-11 10:05:00,
2013-04-11 03:10:00,46.2,-99.9,30.24,SSW,194,2.7,11.5,-999,0.00,,,0.00,homebrew,2013-04-11 10:10:00,
2013-04-11 03:15:00,46.1,-99.9,30.24,SSW,193,2.5,8.7,-999,0.00,,,0.00,homebrew,2013-04-11 10:15:00,
2013-04-11 03:20:00,46.1,-99.9,30.23,SSW,197,2.7,6.9,-999,0.00,,,0.00,homebrew,2013-04-11 10:20:00,
2013-04-11 03:25:00,46.0,-99.9,30.23,SSW,202,3.0,8.8,-999,0.00,,,0.00,homebrew,2013-04-11 10:25:00,
2013-04-11 03:35:00,45.9,-99.9,30.24,SSE,148,1.2,8.2,-999,0.00,,,0.00,homebrew,2013-04-11 10:35:00,
2013-04-11 03:40:00,45.9,-99.9,30.23,South,177,1.6,5.8,-999,0.00,,,0.00,homebrew,2013-04-11 10:40:00,
2013-04-11 03:50:00,45.7,-99.9,30.24,SSW,203,3.1,7.7,-999,0.00,,,0.00,homebrew,2013-04-11 10:50:00,
2013-04-11 03:55:00,45.7,-99.9,30.23,SSW,193,1.8,11.2,-999,0.00,,,0.00,homebrew,2013-04-11 10:55:00,
2013-04-11 04:05:00,45.6,-99.9,30.23,SSW,203,2.4,7.8,-999,0.00,,,0.00,homebrew,2013-04-11 11:05:00,
2013-04-11 04:10:00,45.6,-99.9,30.23,SSW,201,2.1,7.9,-999,0.00,,,0.00,homebrew,2013-04-11 11:10:00,
2013-04-11 04:15:00,45.6,-99.9,30.23,South,191,1.6,5.4,-999,0.00,,,0.00,homebrew,2013-04-11 11:15:00,
2013-04-11 04:20:00,45.5,-99.9,30.23,SSW,211,3.7,6.9,-999,0.00,,,0.00,homebrew,2013-04-11 11:20:00,
2013-04-11 04:25:00,45.5,-99.9,30.23,SSW,206,3.1,8.4,-999,0.00,,,0.00,homebrew,2013-04-11 11:25:00,
2013-04-11 04:35:00,45.4,-99.9,30.23,SSW,196,3.2,6.0,-999,0.00,,,0.00,homebrew,2013-04-11 11:35:00,
2013-04-11 04:40:00,45.4,-99.9,30.23,SSW,203,2.9,9.8,-999,0.00,,,0.00,homebrew,2013-04-11 11:40:00,
2013-04-11 04:45:00,45.4,-99.9,30.23,SSW,210,2.6,6.9,-999,0.00,,,0.00,homebrew,2013-04-11 11:45:00,
2013-04-11 04:50:00,45.4,-99.9,30.23,SSW,202,2.8,12.1,-999,0.00,,,0.00,homebrew,2013-04-11 11:50:00,
2013-04-11 04:55:00,45.3,-99.9,30.23,SSW,207,3.4,9.4,-999,0.00,,,0.00,homebrew,2013-04-11 11:55:00,
2013-04-11 05:00:00,45.3,-99.9,30.23,SSW,197,2.3,9.1,-999,0.00,,,0.00,homebrew,2013-04-11 12:00:00,
2013-04-11 05:10:00,45.4,-99.9,30.23,SSW,212,1.6,8.0,-999,0.00,,,0.00,homebrew,2013-04-11 12:10:00,
2013-04-11 05:15:00,45.4,-99.9,30.23,SSW,197,3.4,5.2,-999,0.00,,,0.00,homebrew,2013-04-11 12:15:00,
2013-04-11 05:20:00,45.4,-99.9,30.23,SSW,211,3.1,10.1,-999,0.00,,,0.00,homebrew,2013-04-11 12:20:00,
2013-04-11 05:25:00,45.4,-99.9,30.23,SSW,192,2.2,9.7,-999,0.00,,,0.00,homebrew,2013-04-11 12:25:00,
2013-04-11 05:30:00,45.4,-99.9,30.23,SSW,204,3.3,9.8,-999,0.00,,,0.00,homebrew,2013-04-11 12:30:00,
2013-04-11 05:35:00,45.4,-99.9,30.23,SSW,196,2.6,10.3,-999,0.00,,,0.00,homebrew,2013-04-11 12:35:00,
2013-04-11 05:40:00,45.4,-99.9,30.23,SSW,203,2.9,6.5,-999,0.00,,,0.00,homebrew,2013-04-11 12:40:00,
2013-04-11 05:45:00,45.4,-99.9,30.23,SSW,206,2.8,9.6,-999,0.00,,,0.00,homebrew,2013-04-11 12:45:00,
2013-04-11 05:50:00,45.4,-99.9,30.23,SSW,198,2.5,6.6,-999,0.00,,,0.00,homebrew,2013-04-11 12:50:00,
2013-04-11 05:55:00,45.4,-99.9,30.23,SSW,192,2.2,8.6,-999,0.00,,,0.00,homebrew,2013-04-11 12:55:00,
2013-04-11 06:00:00,45.4,-99.9,30.23,SSW,196,3.2,8.3,-999,0.00,,,0.00,homebrew,2013-04-11 13:00:00,
2013-04-11 06:05:00,45.3,-99.9,30.23,SSW,194,2.4,11.1,-999,0.00,,,0.00,homebrew,2013-04-11 13:05:00,
2013-04-11 06:15:00,45.3,-99.9,30.23,SSW,195,3.7,5.7,-999,0.00,,,0.00,homebrew,2013-04-11 13:15:00,
2013-04-11 06:20:00,45.3,-99.9,30.23,South,178,2.5,7.1,-999,0.00,,,0.00,homebrew,2013-04-11 13:20:00,
2013-04-11 06:25:00,45.3,-99.9,30.23,SSW,200,2.9,9.8,-999,0.00,,,0.00,homebrew,2013-04-11 13:25:00,
2013-04-11 06:35:00,45.3,-99.9,30.23,South,185,1.2,8.5,-999,0.00,,,0.00,homebrew,2013-04-11 13:35:00,
2013-04-11 06:40:00,45.4,-99.9,30.23,South,175,1.5,6.6,-999,0.00,,,0.00,homebrew,2013-04-11 13:40:00,
2013-04-11 06:45:00,45.4,-99.9,30.23,South,186,1.2,5.8,-999,0.00,,,0.00,homebrew,2013-04-11 13:45:00,
2013-04-11 06:50:00,45.4,-99.9,30.23,SSW,197,2.6,8.1,-999,0.00,,,0.00,homebrew,2013-04-11 13:50:00,
2013-04-11 06:55:00,45.4,-99.9,30.24,SSW,203,3.0,8.4,-999,0.00,,,0.00,homebrew,2013-04-11 13:55:00,
2013-04-11 07:05:00,45.5,-99.9,30.24,SSW,199,2.3,6.4,-999,0.00,,,0.00,homebrew,2013-04-11 14:05:00,
2013-04-11 07:10:00,45.5,-99.9,30.24,SSW,204,2.6,9.0,-999,0.00,,,0.00,homebrew,2013-04-11 14:10:00,
2013-04-11 07:20:00,45.7,-99.9,30.24,SSW,206,2.8,7.4,-999,0.00,,,0.00,homebrew,2013-04-11 14:20:00,
2013-04-11 07:25:00,45.7,-99.9,30.25,South,191,1.6,8.1,-999,0.00,,,0.00,homebrew,2013-04-11 14:25:00,
2013-04-11 07:35:00,45.8,-99.9,30.25,SW,217,2.8,5.7,-999,0.00,,,0.00,homebrew,2013-04-11 14:35:00,
2013-04-11 07:40:00,45.9,-99.9,30.25,SSW,209,2.6,6.3,-999,0.00,,,0.00,homebrew,2013-04-11 14:40:00,
2013-04-11 07:45:00,45.9,-99.9,30.25,SSW,201,3.2,10.1,-999,0.00,,,0.00,homebrew,2013-04-11 14:45:00,
2013-04-11 07:50:00,45.9,-99.9,30.25,South,181,1.2,9.3,-999,0.00,,,0.00,homebrew,2013-04-11 14:50:00,
2013-04-11 07:55:00,46.0,-99.9,30.25,WSW,253,0.8,7.1,-999,0.00,,,0.00,homebrew,2013-04-11 14:55:00,
2013-04-11 08:00:00,46.0,-99.9,30.25,SW,214,1.8,4.3,-999,0.00,,,0.00,homebrew,2013-04-11 15:00:00,
2013-04-11 08:10:00,45.9,-99.9,30.26,South,188,1.7,9.8,-999,0.00,,,0.00,homebrew,2013-04-11 15:10:00,
2013-04-11 08:15:00,45.9,-99.9,30.25,SSW,194,1.9,5.0,-999,0.00,,,0.00,homebrew,2013-04-11 15:15:00,
2013-04-11 08:20:00,45.9,-99.9,30.25,SSW,207,2.2,7.5,-999,0.00,,,0.00,homebrew,2013-04-11 15:20:00,
2013-04-11 08:30:00,45.8,-99.9,30.25,SSW,199,1.1,8.9,-999,0.00,,,0.00,homebrew,2013-04-11 15:30:00,
2013-04-11 08:35:00,45.8,-99.9,30.25,South,185,1.0,4.2,-999,0.00,,,0.00,homebrew,2013-04-11 15:35:00,
2013-04-11 08:45:00,45.8,-99.9,30.26,SSW,202,2.1,5.5,-999,0.00,,,0.00,homebrew,2013-04-11 15:45:00,
2013-04-11 08:50:00,45.6,-99.9,30.26,SSW,194,1.9,8.2,-999,0.01,,,0.01,homebrew,2013-04-11 15:50:00,
2013-04-11 09:00:00,45.5,-99.9,30.25,South,178,0.4,5.7,-999,0.01,,,0.01,homebrew,2013-04-11 16:00:00,
2013-04-11 09:05:00,45.6,-99.9,30.26,SW,220,1.6,3.4,-999,0.01,,,0.01,homebrew,2013-04-11 16:05:00,
2013-04-11 09:10:00,45.6,-99.9,30.26,SSW,204,1.6,4.2,-999,0.01,,,0.01,homebrew,2013-04-11 16:10:00,
2013-04-11 09:20:00,46.0,-99.9,30.25,SSW,201,1.4,5.7,-999,0.01,,,0.01,homebrew,2013-04-11 16:20:00,
2013-04-11 09:25:00,45.9,-99.9,30.25,SSW,198,1.2,5.5,-999,0.01,,,0.01,homebrew,2013-04-11 16:25:00,
2013-04-11 09:35:00,45.9,-99.9,30.25,WSW,243,0.9,4.1,-999,0.01,,,0.01,homebrew,2013-04-11 16:35:00,
2013-04-11 09:40:00,45.8,-99.9,30.25,WSW,252,0.5,3.6,-999,0.01,,,0.01,homebrew,2013-04-11 16:40:00,
2013-04-11 09:45:00,45.7,-99.9,30.25,SSW,208,0.4,2.7,-999,0.01,,,0.02,homebrew,2013-04-11 16:45:00,
2013-04-11 09:50:00,45.5,-99.9,30.26,South,191,0.0,2.5,-999,0.01,,,0.02,homebrew,2013-04-11 16:50:00,
2013-04-11 09:55:00,45.8,-99.9,30.26,South,191,0.0,0.0,-999,0.01,,,0.02,homebrew,2013-04-11 16:55:00,
2013-04-11 10:00:00,46.1,-99.9,30.27,South,186,0.2,0.0,-999,0.01,,,0.02,homebrew,2013-04-11 17:00:00,
2013-04-11 10:05:00,45.5,-99.9,30.27,ESE,122,1.5,3.9,-999,0.01,,,0.02,homebrew,2013-04-11 17:05:00,
2013-04-11 10:10:00,44.6,-99.9,30.27,East,82,1.0,3.6,-999,0.01,,,0.02,homebrew,2013-04-11 17:10:00,
2013-04-11 10:15:00,44.1,-99.9,30.25,ESE,102,2.2,3.9,-999,0.01,,,0.02,homebrew,2013-04-11 17:15:00,
2013-04-11 10:25:00,43.7,-99.9,30.26,ENE,72,0.2,1.9,-999,0.02,,,0.03,homebrew,2013-04-11 17:25:00,
2013-04-11 10:30:00,43.9,-99.9,30.26,ESE,117,0.9,3.2,-999,0.03,,,0.04,homebrew,2013-04-11 17:30:00,
2013-04-11 10:40:00,43.9,-99.9,30.26,East,98,0.0,5.3,-999,0.03,,,0.05,homebrew,2013-04-11 17:40:00,
2013-04-11 10:50:00,45.5,-99.9,30.27,East,98,0.0,0.0,-999,0.04,,,0.06,homebrew,2013-04-11 17:50:00,
2013-04-11 10:55:00,45.0,-99.9,30.28,East,98,0.0,0.0,-999,0.05,,,0.07,homebrew,2013-04-11 17:55:00,
2013-04-11 11:00:00,45.0,-99.9,30.27,East,98,0.0,0.0,-999,0.05,,,0.07,homebrew,2013-04-11 18:00:00,
2013-04-11 11:05:00,44.8,-99.9,30.27,East,98,0.0,0.0,-999,0.05,,,0.07,homebrew,2013-04-11 18:05:00,
2013-04-11 11:15:00,45.3,-99.9,30.27,East,99,1.0,5.7,-999,0.05,,,0.08,homebrew,2013-04-11 18:15:00,
2013-04-11 11:20:00,45.8,-99.9,30.27,ESE,109,3.0,4.5,-999,0.05,,,0.08,homebrew,2013-04-11 18:20:00,
2013-04-11 11:30:00,46.4,-99.9,30.27,East,95,3.1,5.1,-999,0.03,,,0.08,homebrew,2013-04-11 18:30:00,
2013-04-11 11:35:00,47.0,-99.9,30.27,East,85,2.4,6.1,-999,0.03,,,0.08,homebrew,2013-04-11 18:35:00,
2013-04-11 11:40:00,45.9,-99.9,30.27,ENE,74,1.4,6.5,-999,0.03,,,0.08,homebrew,2013-04-11 18:40:00,
2013-04-11 11:45:00,46.4,-99.9,30.28,ENE,70,1.8,5.8,-999,0.02,,,0.08,homebrew,2013-04-11 18:45:00,
2013-04-11 11:50:00,46.4,-99.9,30.27,East,92,0.8,4.7,-999,0.02,,,0.08,homebrew,2013-04-11 18:50:00,
2013-04-11 12:00:00,46.1,-99.9,30.27,East,79,1.6,3.4,-999,0.01,,,0.08,homebrew,2013-04-11 19:00:00,
2013-04-11 12:05:00,46.3,-99.9,30.27,ESE,121,1.0,4.1,-999,0.01,,,0.08,homebrew,2013-04-11 19:05:00,
2013-04-11 12:10:00,46.1,-99.9,30.27,SE,124,2.2,2.9,-999,0.01,,,0.08,homebrew,2013-04-11 19:10:00,
2013-04-11 12:15:00,46.2,-99.9,30.27,East,92,2.6,5.9,-999,0.00,,,0.08,homebrew,2013-04-11 19:15:00,
2013-04-11 12:20:00,46.1,-99.9,30.27,ESE,112,2.2,6.3,-999,0.00,,,0.08,homebrew,2013-04-11 19:20:00,
2013-04-11 12:25:00,46.6,-99.9,30.27,ESE,106,3.1,6.2,-999,0.00,,,0.08,homebrew,2013-04-11 19:25:00,
2013-04-11 12:35:00,47.3,-99.9,30.27,East,84,3.2,7.8,-999,0.00,,,0.08,homebrew,2013-04-11 19:35:00,
2013-04-11 12:40:00,47.7,-99.9,30.27,East,95,1.9,5.9,-999,0.00,,,0.08,homebrew,2013-04-11 19:40:00,
2013-04-11 12:45:00,47.3,-99.9,30.27,East,100,3.0,6.5,-999,0.00,,,0.08,homebrew,2013-04-11 19:45:00,
2013-04-11 12:50:00,47.5,-99.9,30.27,ESE,115,2.9,5.2,-999,0.00,,,0.08,homebrew,2013-04-11 19:50:00,
2013-04-11 12:55:00,47.2,-99.9,30.27,SSE,150,1.6,6.0,-999,0.00,,,0.08,homebrew,2013-04-11 19:55:00,
2013-04-11 13:00:00,47.7,-99.9,30.27,East,96,0.7,5.1,-999,0.01,,,0.09,homebrew,2013-04-11 20:00:00,
2013-04-11 13:10:00,47.9,-99.9,30.27,ESE,122,1.2,4.3,-999,0.01,,,0.09,homebrew,2013-04-11 20:10:00,
2013-04-11 13:20:00,47.4,-99.9,30.27,ENE,77,2.2,4.4,-999,0.01,,,0.09,homebrew,2013-04-11 20:20:00,
2013-04-11 13:25:00,47.2,-99.9,30.26,ESE,115,3.5,6.0,-999,0.01,,,0.09,homebrew,2013-04-11 20:25:00,
2013-04-11 13:30:00,46.8,-99.9,30.27,ESE,114,4.7,6.0,-999,0.01,,,0.09,homebrew,2013-04-11 20:30:00,
2013-04-11 13:35:00,46.5,-99.9,30.26,ESE,106,3.8,8.1,-999,0.01,,,0.09,homebrew,2013-04-11 20:35:00,
2013-04-11 13:40:00,46.8,-99.9,30.26,SE,127,3.0,6.2,-999,0.01,,,0.09,homebrew,2013-04-11 20:40:00,
2013-04-11 13:45:00,46.7,-99.9,30.25,SE,126,3.6,5.8,-999,0.01,,,0.09,homebrew,2013-04-11 20:45:00,
2013-04-11 13:55:00,47.5,-99.9,30.25,ESE,110,2.1,5.4,-999,0.01,,,0.09,homebrew,2013-04-11 20:55:00,
2013-04-11 14:00:00,49.0,-99.9,30.25,ESE,123,2.7,3.8,-999,0.00,,,0.09,homebrew,2013-04-11 21:00:00,
2013-04-11 14:05:00,50.4,-99.9,30.25,ENE,78,3.9,5.8,-999,0.00,,,0.09,homebrew,2013-04-11 21:05:00,
2013-04-11 14:10:00,51.5,-99.9,30.25,East,98,3.6,8.4,-999,0.00,,,0.09,homebrew,2013-04-11 21:10:00,
2013-04-11 14:15:00,52.1,-99.9,30.25,SSE,161,2.7,7.2,-999,0.00,,,0.09,homebrew,2013-04-11 21:15:00,
2013-04-11 14:25:00,50.4,-99.9,30.25,SE,126,2.2,6.8,-999,0.00,,,0.09,homebrew,2013-04-11 21:25:00,
2013-04-11 14:30:00,50.2,-99.9,30.25,ESE,116,2.3,6.3,-999,0.00,,,0.09,homebrew,2013-04-11 21:30:00,
2013-04-11 14:35:00,49.5,-99.9,30.25,SE,127,3.1,4.9,-999,0.00,,,0.09,homebrew,2013-04-11 21:35:00,
2013-04-11 14:45:00,49.2,-99.9,30.25,East,101,1.6,6.5,-999,0.00,,,0.09,homebrew,2013-04-11 21:45:00,
2013-04-11 14:50:00,50.2,-99.9,30.25,SE,128,1.0,3.6,-999,0.00,,,0.09,homebrew,2013-04-11 21:50:00,
2013-04-11 14:55:00,49.8,-99.9,30.25,SSE,148,1.0,3.7,-999,0.00,,,0.09,homebrew,2013-04-11 21:55:00,
2013-04-11 15:05:00,49.2,-99.9,30.25,ESE,116,0.0,2.6,-999,0.00,,,0.09,homebrew,2013-04-11 22:05:00,
2013-04-11 15:10:00,49.2,-99.9,30.25,ESE,116,0.0,0.0,-999,0.00,,,0.09,homebrew,2013-04-11 22:10:00,
2013-04-11 15:15:00,48.9,-99.9,30.25,ESE,116,0.0,0.0,-999,0.00,,,0.09,homebrew,2013-04-11 22:15:00,
2013-04-11 15:20:00,48.6,-99.9,30.25,SW,229,1.7,1.7,-999,0.00,,,0.09,homebrew,2013-04-11 22:20:00,
2013-04-11 15:25:00,48.2,-99.9,30.24,North,352,0.0,3.9,-999,0.00,,,0.09,homebrew,2013-04-11 22:25:00,
2013-04-11 15:30:00,47.9,-99.9,30.24,North,352,0.0,0.6,-999,0.00,,,0.09,homebrew,2013-04-11 22:30:00,
2013-04-11 15:35:00,48.1,-99.9,30.25,North,352,0.0,0.0,-999,0.00,,,0.09,homebrew,2013-04-11 22:35:00,
2013-04-11 15:40:00,48.1,-99.9,30.25,North,352,0.0,0.0,-999,0.00,,,0.09,homebrew,2013-04-11 22:40:00,
2013-04-11 15:45:00,48.5,-99.9,30.24,North,352,0.0,0.0,-999,0.00,,,0.09,homebrew,2013-04-11 22:45:00,
2013-04-11 15:50:00,48.4,-99.9,30.24,North,352,0.0,0.0,-999,0.00,,,0.09,homebrew,2013-04-11 22:50:00,
2013-04-11 15:55:00,48.3,-99.9,30.24,North,352,0.0,0.0,-999,0.00,,,0.09,homebrew,2013-04-11 22:55:00,
2013-04-11 16:00:00,48.0,-99.9,30.24,North,352,0.0,0.0,-999,0.00,,,0.09,homebrew,2013-04-11 23:00:00,
2013-04-11 16:10:00,49.2,-99.9,30.24,North,352,0.0,0.0,-999,0.00,,,0.09,homebrew,2013-04-11 23:10:00,
2013-04-11 16:15:00,49.4,-99.9,30.24,North,352,0.0,0.0,-999,0.00,,,0.09,homebrew,2013-04-11 23:15:00,
2013-04-11 16:20:00,49.8,-99.9,30.23,North,352,0.0,0.0,-999,0.00,,,0.09,homebrew,2013-04-11 23:20:00,
2013-04-11 16:30:00,49.9,-99.9,30.23,SE,145,1.4,4.0,-999,0.00,,,0.09,homebrew,2013-04-11 23:30:00,
2013-04-11 16:35:00,51.2,-99.9,30.23,East,82,2.5,4.5,-999,0.00,,,0.09,homebrew,2013-04-11 23:35:00,
2013-04-11 16:40:00,51.6,-99.9,30.23,East,91,3.0,5.0,-999,0.00,,,0.09,homebrew,2013-04-11 23:40:00,
2013-04-11 16:45:00,51.9,-99.9,30.23,ESE,105,2.9,5.8,-999,0.00,,,0.09,homebrew,2013-04-11 23:45:00,
2013-04-11 16:50:00,52.0,-99.9,30.22,ESE,115,2.4,5.5,-999,0.00,,,0.09,homebrew,2013-04-11 23:50:00,
2013-04-11 17:00:00,50.1,-99.9,30.22,East,94,0.5,4.9,-999,0.00,,,0.09,homebrew,2013-04-12 00:00:00,
2013-04-11 17:05:00,51.0,-99.9,30.22,SSE,168,1.0,2.4,-999,0.00,,,0.09,homebrew,2013-04-12 00:05:00,
2013-04-11 17:15:00,53.9,-99.9,30.22,ENE,63,1.2,5.1,-999,0.00,,,0.09,homebrew,2013-04-12 00:15:00,
2013-04-11 17:20:00,53.4,-99.9,30.22,NE,37,0.0,2.9,-999,0.00,,,0.09,homebrew,2013-04-12 00:20:00,
2013-04-11 17:25:00,52.4,-99.9,30.21,ESE,108,1.3,1.3,-999,0.00,,,0.09,homebrew,2013-04-12 00:25:00,
2013-04-11 17:30:00,51.0,-99.9,30.21,SE,129,1.9,3.5,-999,0.00,,,0.09,homebrew,2013-04-12 00:30:00,
2013-04-11 17:35:00,50.5,-99.9,30.22,East,92,4.2,5.0,-999,0.00,,,0.09,homebrew,2013-04-12 00:35:00,
2013-04-11 17:40:00,50.7,-99.9,30.21,East,87,1.6,8.0,-999,0.00,,,0.09,homebrew,2013-04-12 00:40:00,
2013-04-11 17:45:00,50.8,-99.9,30.20,East,80,2.4,3.3,-999,0.00,,,0.09,homebrew,2013-04-12 00:45:00,
2013-04-11 17:50:00,50.7,-99.9,30.21,ENE,75,2.4,4.8,-999,0.00,,,0.09,homebrew,2013-04-12 00:50:00,
2013-04-11 17:55:00,51.1,-99.9,30.20,East,79,1.7,4.8,-999,0.00,,,0.09,homebrew,2013-04-12 00:55:00,
2013-04-11 18:05:00,51.2,-99.9,30.20,East,94,1.6,2.5,-999,0.00,,,0.09,homebrew,2013-04-12 01:05:00,
2013-04-11 18:10:00,50.7,-99.9,30.19,East,98,2.6,4.8,-999,0.00,,,0.09,homebrew,2013-04-12 01:10:00,
2013-04-11 18:15:00,50.4,-99.9,30.19,East,98,3.3,5.7,-999,0.00,,,0.09,homebrew,2013-04-12 01:15:00,
2013-04-11 18:20:00,50.4,-99.9,30.19,East,80,1.6,6.3,-999,0.00,,,0.09,homebrew,2013-04-12 01:20:00,
2013-04-11 18:25:00,50.8,-99.9,30.20,NE,54,0.8,5.2,-999,0.00,,,0.09,homebrew,2013-04-12 01:25:00,
2013-04-11 18:30:00,50.7,-99.9,30.20,ESE,108,1.4,2.9,-999,0.00,,,0.09,homebrew,2013-04-12 01:30:00,
2013-04-11 18:35:00,50.2,-99.9,30.20,East,86,0.4,3.1,-999,0.00,,,0.09,homebrew,2013-04-12 01:35:00,
2013-04-11 18:40:00,50.2,-99.9,30.20,East,90,1.6,1.8,-999,0.00,,,0.09,homebrew,2013-04-12 01:40:00,
2013-04-11 18:45:00,50.0,-99.9,30.19,East,92,0.2,3.9,-999,0.00,,,0.09,homebrew,2013-04-12 01:45:00,
2013-04-11 18:50:00,49.9,-99.9,30.19,East,96,1.6,2.2,-999,0.00,,,0.09,homebrew,2013-04-12 01:50:00,
2013-04-11 18:55:00,49.7,-99.9,30.19,East,95,1.7,4.4,-999,0.00,,,0.09,homebrew,2013-04-12 01:55:00,
2013-04-11 19:00:00,49.7,-99.9,30.19,East,93,1.5,4.1,-999,0.00,,,0.09,homebrew,2013-04-12 02:00:00,
2013-04-11 19:10:00,49.6,-99.9,30.19,ENE,76,1.6,4.7,-999,0.00,,,0.09,homebrew,2013-04-12 02:10:00,
2013-04-11 19:15:00,49.7,-99.9,30.19,East,83,0.9,3.2,-999,0.00,,,0.09,homebrew,2013-04-12 02:15:00,
2013-04-11 19:25:00,49.5,-99.9,30.18,East,83,1.3,3.7,-999,0.00,,,0.09,homebrew,2013-04-12 02:25:00,
2013-04-11 19:30:00,49.4,-99.9,30.18,ENE,71,0.5,4.0,-999,0.00,,,0.09,homebrew,2013-04-12 02:30:00,
2013-04-11 19:35:00,49.3,-99.9,30.18,ENE,72,1.9,2.9,-999,0.00,,,0.09,homebrew,2013-04-12 02:35:00,
2013-04-11 19:45:00,49.1,-99.9,30.17,East,87,3.4,5.3,-999,0.00,,,0.09,homebrew,2013-04-12 02:45:00,
2013-04-11 19:50:00,49.0,-99.9,30.17,East,79,4.4,7.6,-999,0.00,,,0.09,homebrew,2013-04-12 02:50:00,
2013-04-11 20:00:00,48.6,-99.9,30.17,East,81,3.3,6.3,-999,0.00,,,0.09,homebrew,2013-04-12 03:00:00,
2013-04-11 20:05:00,48.4,-99.9,30.17,ENE,77,2.4,6.3,-999,0.00,,,0.09,homebrew,2013-04-12 03:05:00,
2013-04-11 20:10:00,48.2,-99.9,30.17,East,81,2.1,5.0,-999,0.00,,,0.09,homebrew,2013-04-12 03:10:00,
2013-04-11 20:15:00,48.2,-99.9,30.17,NE,40,0.7,6.6,-999,0.00,,,0.09,homebrew,2013-04-12 03:15:00,
2013-04-11 20:20:00,48.1,-99.9,30.17,NE,53,1.3,4.1,-999,0.00,,,0.09,homebrew,2013-04-12 03:20:00,
2013-04-11 20:25:00,48.0,-99.9,30.17,NE,56,2.8,4.3,-999,0.00,,,0.09,homebrew,2013-04-12 03:25:00,
2013-04-11 20:30:00,47.9,-99.9,30.17,ENE,68,2.2,5.4,-999,0.00,,,0.09,homebrew,2013-04-12 03:30:00,
2013-04-11 20:35:00,47.7,-99.9,30.17,ENE,69,2.9,6.1,-999,0.00,,,0.09,homebrew,2013-04-12 03:35:00,
2013-04-11 20:40:00,47.6,-99.9,30.17,ENE,70,2.5,6.5,-999,0.00,,,0.09,homebrew,2013-04-12 03:40:00,
2013-04-11 20:50:00,47.6,-99.9,30.17,ENE,62,2.4,6.0,-999,0.00,,,0.09,homebrew,2013-04-12 03:50:00,
2013-04-11 20:55:00,47.5,-99.9,30.17,ENE,64,2.5,6.3,-999,0.00,,,0.09,homebrew,2013-04-12 03:55:00,
2013-04-11 21:00:00,47.4,-99.9,30.17,ENE,69,2.1,5.3,-999,0.00,,,0.09,homebrew,2013-04-12 04:00:00,
2013-04-11 21:05:00,47.4,-99.9,30.17,ENE,63,1.6,6.0,-999,0.00,,,0.09,homebrew,2013-04-12 04:05:00,
2013-04-11 21:10:00,47.2,-99.9,30.17,ENE,71,1.7,3.8,-999,0.00,,,0.09,homebrew,2013-04-12 04:10:00,
2013-04-11 21:15:00,47.2,-99.9,30.17,ENE,62,1.3,3.5,-999,0.00,,,0.09,homebrew,2013-04-12 04:15:00,
2013-04-11 21:20:00,47.1,-99.9,30.17,NE,47,1.9,4.3,-999,0.00,,,0.09,homebrew,2013-04-12 04:20:00,
2013-04-11 21:25:00,47.0,-99.9,30.17,ENE,61,1.4,3.9,-999,0.00,,,0.09,homebrew,2013-04-12 04:25:00,
2013-04-11 21:30:00,47.0,-99.9,30.17,NE,47,1.4,3.5,-999,0.00,,,0.09,homebrew,2013-04-12 04:30:00,
2013-04-11 21:35:00,47.0,-99.9,30.18,SE,128,0.9,4.5,-999,0.00,,,0.09,homebrew,2013-04-12 04:35:00,
2013-04-11 21:40:00,46.9,-99.9,30.17,NE,53,1.8,3.9,-999,0.00,,,0.09,homebrew,2013-04-12 04:40:00,
2013-04-11 21:45:00,46.7,-99.9,30.17,ENE,70,2.3,4.8,-999,0.00,,,0.09,homebrew,2013-04-12 04:45:00,
2013-04-11 21:50:00,46.4,-99.9,30.17,ENE,71,2.0,5.5,-999,0.00,,,0.09,homebrew,2013-04-12 04:50:00,
2013-04-11 21:55:00,46.3,-99.9,30.17,NE,56,2.4,5.3,-999,0.00,,,0.09,homebrew,2013-04-12 04:55:00,
2013-04-11 22:00:00,46.1,-99.9,30.17,ENE,62,1.9,6.2,-999,0.00,,,0.09,homebrew,2013-04-12 05:00:00,
2013-04-11 22:10:00,45.8,-99.9,30.17,ENE,77,1.5,3.9,-999,0.00,,,0.09,homebrew,2013-04-12 05:10:00,
2013-04-11 22:15:00,45.7,-99.9,30.16,ENE,74,1.2,5.5,-999,0.00,,,0.09,homebrew,2013-04-12 05:15:00,
2013-04-11 22:20:00,45.6,-99.9,30.17,WNW,300,0.3,3.1,-999,0.00,,,0.09,homebrew,2013-04-12 05:20:00,
2013-04-11 22:30:00,45.3,-99.9,30.17,ENE,72,1.0,4.4,-999,0.00,,,0.09,homebrew,2013-04-12 05:30:00,
2013-04-11 22:35:00,45.1,-99.9,30.16,East,86,0.3,3.6,-999,0.00,,,0.09,homebrew,2013-04-12 05:35:00,
2013-04-11 22:45:00,44.7,-99.9,30.16,East,90,2.2,2.2,-999,0.00,,,0.09,homebrew,2013-04-12 05:45:00,
2013-04-11 22:50:00,44.7,-99.9,30.16,ENE,78,2.6,4.4,-999,0.00,,,0.09,homebrew,2013-04-12 05:50:00,
2013-04-11 23:00:00,44.6,-99.9,30.16,ENE,61,0.9,6.0,-999,0.00,,,0.09,homebrew,2013-04-12 06:00:00,
2013-04-11 23:05:00,44.6,-99.9,30.16,NE,43,0.9,4.0,-999,0.00,,,0.09,homebrew,2013-04-12 06:05:00,
2013-04-11 23:10:00,44.6,-99.9,30.16,NE,51,0.9,2.4,-999,0.00,,,0.09,homebrew,2013-04-12 06:10:00,
2013-04-11 23:15:00,44.5,-99.9,30.16,ENE,59,1.4,2.6,-999,0.00,,,0.09,homebrew,2013-04-12 06:15:00,
2013-04-11 23:20:00,44.3,-99.9,30.16,NE,53,2.5,3.6,-999,0.00,,,0.09,homebrew,2013-04-12 06:20:00,
2013-04-11 23:25:00,44.2,-99.9,30.16,ENE,73,1.1,5.7,-999,0.00,,,0.09,homebrew,2013-04-12 06:25:00,
2013-04-11 23:35:00,44.1,-99.9,30.16,ENE,72,1.8,4.5,-999,0.00,,,0.09,homebrew,2013-04-12 06:35:00,
2013-04-11 23:40:00,44.0,-99.9,30.16,ENE,70,0.8,5.3,-999,0.00,,,0.09,homebrew,2013-04-12 06:40:00,
2013-04-11 23:45:00,43.7,-99.9,30.15,ENE,73,0.0,2.1,-999,0.00,,,0.09,homebrew,2013-04-12 06:45:00,
2013-04-11 23:50:00,43.6,-99.9,30.15,NE,40,0.0,0.0,-999,0.00,,,0.09,homebrew,2013-04-12 06:50:00,
2013-04-11 23:55:00,43.5,-99.9,30.15,NNE,15,0.0,0.9,-999,0.00,,,0.09,homebrew,2013-04-12 06:55:00,